Temp
5 5 5 4 4 4 4 3 4 4 4 5 5 5 5 5 5 6 6 6 7 6 6 7 6 5 6 6 6 6 6 6 6 5 6 6 6 6 6 6 6 6 5
5 4 4 3 2 3 3 3 3 3 3 4 5 6 6 6 6 6 6 6 6 5 6 7 7 6 6 5 5 5 5 5 5 5 5 5 6 6 6 5 5 5 5
4 4 3 2 1 3 3 3 3 3 3 4 4 5 5 6 7 7 7 7 6 6 6 5 5 5 6 5 5 5 4 3 2 3 4 4 5 5 5 5 5 5 5
2 4 3 0 2 3 2 2 2 3 3 3 4 4 5 5 6 6 7 7 7 7 6 5 4 4 5 4 4 4 4 3 3 2 2 4 4 5 5 5 5 5 5
2 2 0 1 2 2 2 2 2 3 3 4 4 4 5 5 6 6 6 6 6 6 5 5 4 4 4 3 3 3 3 3 4 3 2 3 4 4 5 5 5 4 4
0 0 1 1 2 2 1 1 2 2 3 3 3 4 5 5 6 6 6 6 6 6 5 4 3 3 3 3 3 3 3 3 3 3 4 4 4 4 5 5 5 4 4
-1 -0 1 1 2 1 1 1 1 1 2 2 3 3 4 4 5 5 5 5 5 4 5 4 3 3 3 3 1 2 2 3 2 3 3 3 4 4 3 4 4 4 4
-1 -1 0 1 1 0 1 1 1 1 1 2 2 2 3 3 4 5 4 4 4 5 4 4 3 3 2 2 1 2 2 3 3 3 2 3 3 3 3 4 3 4 4
-2 -0 1 1 0 -0 0 1 1 1 1 2 2 2 2 2 3 3 3 4 4 4 4 4 3 3 2 2 1 1 2 3 3 2 2 2 3 2 3 3 3 3 4
-3 -2 -1 -1 -1 -0 0 -0 0 1 1 1 1 1 2 2 3 3 3 3 3 3 3 3 3 3 1 1 1 2 2 3 3 2 2 1 1 1 3 1 2 3 3
-4 -3 -2 -1 -1 -1 -0 -0 -0 -0 -0 0 0 1 1 2 2 2 2 2 2 2 2 3 3 2 1 -0 1 2 3 4 3 2 2 3 1 1 2 2 1 2 2
-4 -3 -2 -2 -2 -1 -1 -1 -1 -2 -2 -1 -0 1 1 1 2 2 2 2 1 2 2 2 1 1 1 0 1 2 3 3 2 3 2 1 1 2 1 2 1 1 1
-3 -3 -3 -2 -2 -2 -2 -3 -3 -3 -3 -2 -1 -0 0 1 1 1 1 1 1 1 1 1 1 1 0 0 1 2 3 3 3 2 2 2 0 1 1 1 1 1 1
-3 -3 -3 -3 -3 -3 -4 -4 -4 -3 -3 -2 -2 -1 -1 -0 -0 0 -0 1 1 2 1 1 1 1 -0 0 1 1 2 2 2 2 0 1 1 0 2 2 1 1 1
-4 -4 -4 -4 -4 -4 -5 -4 -4 -4 -4 -3 -3 -3 -3 -2 -1 -1 -0 -0 -0 -0 -1 -0 0 1 0 0 0 0 1 2 2 1 0 1 -0 -0 0 1 1 1 2
-5 -6 -6 -5 -5 -5 -5 -5 -5 -5 -5 -4 -5 -4 -4 -3 -4 -4 -2 -1 -1 -2 -1 -1 -0 0 -0 -0 0 1 2 1 2 1 1 1 1 1 0 1 1 0 1
-6 -6 -6 -6 -6 -6 -7 -7 -6 -6 -7 -7 -6 -5 -5 -5 -4 -3 -3 -3 -2 -2 -2 -1 -1 0 -0 1 1 0 1 1 1 1 1 1 0 0 1 1 1 0 0
-6 -6 -7 -7 -8 -8 -8 -7 -7 -7 -7 -6 -6 -6 -6 -5 -5 -5 -4 -4 -3 -3 -2 -2 -2 -1 -1 -1 -1 -0 1 1 1 1 1 0 0 0 1 1 1 0 0
-7 -7 -8 -8 -9 -8 -8 -8 -8 -8 -7 -7 -7 -6 -6 -6 -6 -5 -5 -5 -5 -4 -3 -3 -2 -2 -1 -1 -1 -1 -0 1 0 1 0 0 0 0 0 0 -0 -1 -0
-8 -9 -9 -9 -9 -9 -9 -8 -8 -8 -8 -7 -7 -7 -7 -7 -6 -6 -6 -6 -5 -5 -4 -4 -4 -3 -3 -2 -2 -1 -1 0 0 -0 0 1 0 -0 -1 -1 -0 -0 -0
-9 -9 -9 -9 -9 -9 -9 -9 -8 -8 -8 -8 -8 -7 -7 -6 -6 -7 -7 -7 -6 -6 -5 -5 -4 -4 -4 -4 -4 -3 -2 -1 -1 -0 0 -0 0 -0 -1 -0 -0 -0 -1
-10 -10 -10 -9 -9 -9 -9 -9 -8 -8 -8 -8 -8 -7 -7 -7 -7 -7 -7 -7 -7 -6 -6 -5 -5 -5 -5 -4 -4 -4 -4 -4 -3 -3 -3 -1 -0 0 0 -0 -0 -1 -2
-10 -10 -9 -9 -9 -9 -9 -9 -8 -8 -8 -8 -8 -7 -7 -7 -7 -7 -7 -7 -7 -6 -6 -6 -6 -6 -5 -6 -6 -5 -4 -4 -4 -4 -4 -4 -4 -2 -1 -1 -1 -2 -2
-9 -9 -9 -10 -9 -9 -9 -9 -8 -8 -8 -8 -8 -7 -7 -7 -7 -7 -7 -7 -7 -6 -6 -6 -6 -6 -6 -7 -6 -6 -6 -6 -6 -5 -5 -5 -4 -4 -4 -3 -2 -2 -2
-9 -10 -9 -9 -9 -9 -9 -9 -9 -8 -8 -8 -8 -8 -7 -7 -7 -7 -7 -7 -7 -7 -7 -6 -6 -6 -6 -6 -6 -7 -7 -7 -7 -6 -6 -6 -6 -5 -5 -5 -5 -5 -5
-10 -9 -9 -9 -9 -9 -9 -8 -9 -8 -8 -8 -8 -8 -9 -9 -9 -8 -9 -9 -9 -8 -8 -8 -8 -8 -7 -7 -7 -7 -7 -7 -7 -8 -7 -7 -7 -7 -7 -6 -6 -6 -6
Height
3057 3054 3054 3053 3057 3066 3065 3063 3063 3063 3063 3063 3064 3065 3066 3068 3069 3070 3072 3075 3075 3076 3081 3080 3082 3085 3084 3086 3085 3086 3092 3095 3097 3100 3101 3100 3101 3103 3107 3107 3106 3107 3107
3049 3047 3049 3049 3052 3058 3059 3059 3058 3057 3057 3058 3058 3057 3057 3059 3060 3062 3062 3063 3065 3065 3067 3071 3072 3074 3075 3077 3076 3076 3081 3084 3089 3090 3093 3095 3094 3095 3099 3100 3101 3101 3101
3036 3040 3043 3043 3047 3053 3055 3054 3053 3052 3051 3051 3050 3049 3049 3049 3049 3050 3051 3052 3053 3054 3053 3053 3058 3061 3063 3066 3067 3068 3069 3044 3070 3081 3084 3089 3086 3090 3092 3094 3095 3095 3095
3026 3033 3030 3036 3044 3049 3050 3049 3047 3046 3045 3043 3042 3041 3040 3040 3041 3040 3040 3041 3042 3040 3040 3040 3042 3046 3049 3053 3056 3059 3055 3049 3066 3069 3070 3079 3080 3083 3084 3086 3089 3088 3088
3024 3024 3026 3036 3042 3044 3045 3044 3043 3040 3038 3036 3034 3033 3032 3030 3030 3031 3030 3030 3029 3028 3027 3026 3027 3032 3035 3040 3044 3044 3047 3049 3052 3059 3065 3070 3073 3075 3076 3077 3082 3081 3081
3022 3023 3025 3033 3037 3039 3041 3041 3039 3036 3033 3031 3028 3025 3023 3021 3020 3020 3018 3016 3014 3013 3013 3014 3013 3020 3023 3025 3028 3032 3035 3039 3045 3051 3052 3060 3063 3067 3066 3070 3074 3074 3073
3015 3024 3025 3030 3032 3034 3035 3035 3033 3030 3027 3025 3022 3018 3014 3012 3010 3009 3007 3005 3003 3002 3003 3002 3001 3007 3011 3013 3009 3018 3024 3029 3032 3038 3041 3049 3054 3057 3058 3061 3064 3065 3065
3012 3018 3022 3025 3027 3029 3030 3029 3027 3023 3020 3017 3013 3011 3007 3004 3002 2999 2998 2995 2993 2993 2993 2991 2992 2996 2999 3000 3002 3008 3014 3018 3022 3027 3033 3039 3044 3047 3051 3053 3054 3057 3057
3013 3018 3021 3023 3025 3026 3024 3021 3019 3016 3012 3008 3006 3003 3000 2997 2994 2991 2988 2986 2985 2983 2982 2982 2984 2985 2989 2993 2989 2996 3004 3009 3011 3016 3022 3026 3036 3040 3043 3043 3045 3048 3048
3015 3020 3017 3021 3022 3020 3017 3015 3011 3008 3004 3001 2997 2996 2993 2990 2986 2982 2980 2978 2977 2975 2974 2975 2975 2976 2981 2984 2986 2990 2996 2998 3002 3006 3007 3014 3023 3030 3032 3030 3033 3038 3039
3016 3017 3017 3016 3014 3012 3009 3006 3003 3001 2998 2994 2991 2989 2986 2982 2978 2975 2972 2970 2969 2968 2966 2967 2969 2968 2972 2972 2976 2983 2986 2988 2992 2994 2996 3005 3014 3017 3020 3024 3025 3027 3031
3011 3010 3009 3008 3008 3007 3003 2999 2996 2994 2990 2987 2984 2981 2979 2976 2971 2966 2964 2962 2961 2961 2960 2960 2962 2963 2964 2965 2970 2976 2978 2978 2981 2986 2991 2997 3001 2998 3010 3013 3017 3019 3023
3010 3009 3008 3005 3002 2999 2996 2993 2991 2988 2985 2981 2978 2975 2972 2968 2963 2958 2956 2953 2953 2953 2952 2951 2953 2954 2954 2954 2962 2966 2968 2970 2974 2979 2982 2990 2983 2993 2999 3002 3003 3010 3015
3010 3007 3004 3001 2998 2995 2991 2989 2986 2983 2979 2976 2972 2970 2966 2961 2955 2951 2948 2945 2943 2942 2942 2942 2944 2944 2944 2937 2946 2954 2959 2963 2968 2971 2974 2980 2983 2980 2984 2988 2991 2999 3005
3004 3002 2999 2996 2993 2990 2987 2984 2981 2978 2975 2972 2970 2966 2960 2954 2948 2944 2941 2938 2936 2934 2933 2933 2934 2934 2927 2932 2937 2945 2950 2955 2960 2963 2968 2971 2972 2974 2975 2979 2986 2991 2995
2997 2995 2992 2989 2987 2986 2984 2981 2979 2976 2974 2971 2968 2962 2956 2950 2945 2940 2937 2933 2929 2927 2926 2926 2927 2927 2928 2929 2931 2933 2940 2946 2952 2956 2959 2963 2967 2968 2970 2976 2980 2984 2988
2991 2989 2988 2985 2984 2983 2982 2980 2977 2975 2972 2970 2966 2961 2957 2949 2943 2937 2934 2930 2925 2923 2921 2920 2920 2921 2924 2925 2931 2932 2932 2939 2945 2949 2954 2954 2957 2960 2966 2970 2974 2978 2981
2989 2988 2986 2985 2984 2982 2981 2979 2976 2975 2973 2970 2966 2962 2956 2950 2944 2939 2934 2929 2925 2919 2916 2916 2915 2915 2917 2919 2920 2922 2928 2932 2937 2940 2945 2948 2951 2956 2960 2963 2967 2970 2974
2988 2987 2985 2984 2983 2982 2981 2979 2977 2975 2972 2969 2966 2962 2957 2953 2947 2941 2936 2932 2927 2922 2917 2914 2912 2912 2913 2914 2917 2919 2921 2913 2925 2933 2939 2943 2946 2950 2954 2956 2958 2961 2964
2987 2986 2985 2985 2983 2982 2981 2980 2978 2975 2972 2968 2965 2962 2959 2955 2951 2944 2939 2935 2931 2926 2922 2918 2914 2912 2913 2911 2911 2912 2913 2916 2922 2925 2930 2933 2937 2938 2945 2947 2949 2952 2955
2986 2986 2986 2985 2984 2983 2982 2981 2978 2975 2973 2970 2967 2965 2961 2956 2953 2948 2944 2941 2936 2933 2929 2924 2921 2917 2914 2912 2911 2911 2910 2911 2916 2916 2921 2924 2929 2933 2936 2939 2941 2944 2947
2987 2987 2987 2986 2985 2984 2982 2981 2980 2977 2975 2972 2968 2965 2962 2959 2956 2952 2948 2944 2941 2938 2933 2929 2926 2923 2919 2917 2916 2914 2913 2913 2914 2915 2915 2915 2919 2921 2925 2929 2932 2935 2937
2987 2988 2988 2987 2987 2987 2984 2982 2980 2979 2977 2974 2971 2968 2965 2961 2958 2954 2951 2947 2944 2940 2936 2933 2930 2926 2924 2921 2919 2917 2917 2916 2916 2915 2912 2910 2909 2910 2913 2917 2921 2925 2929
2989 2990 2990 2990 2988 2986 2985 2984 2982 2981 2978 2975 2972 2970 2966 2963 2960 2956 2953 2949 2946 2942 2938 2935 2932 2930 2927 2925 2922 2920 2918 2916 2917 2915 2912 2911 2910 2910 2906 2910 2911 2914 2918
2991 2991 2990 2989 2988 2988 2987 2985 2984 2982 2978 2976 2973 2970 2967 2964 2961 2957 2954 2950 2946 2942 2939 2937 2934 2931 2929 2927 2924 2922 2919 2918 2916 2914 2912 2912 2911 2909 2908 2909 2909 2908 2909
2991 2990 2990 2990 2990 2990 2989 2987 2984 2982 2979 2977 2974 2970 2966 2962 2959 2956 2953 2949 2945 2941 2939 2936 2933 2930 2928 2925 2923 2921 2919 2917 2914 2912 2911 2910 2908 2908 2907 2906 2906 2906 2905
Wind_Speed
34 38 42 42 40 33 29 28 25 24 25 28 30 31 33 36 39 41 42 44 45 45 45 46 45 44 48 49 52 51 45 42 38 35 34 33 32 30 26 23 24 22 22
35 38 36 35 29 24 28 28 22 22 24 25 27 29 31 32 36 38 42 44 45 46 48 51 54 53 52 51 53 54 50 48 43 38 34 37 35 32 28 26 24 22 21
39 35 33 32 24 24 27 21 20 22 24 25 26 28 30 32 34 37 40 43 47 50 52 53 53 55 57 56 55 54 49 66 39 38 35 38 38 32 30 27 24 23 22
34 39 45 23 16 24 19 14 18 21 23 24 25 26 29 31 33 35 37 40 44 49 54 57 53 52 54 54 56 52 63 52 51 38 38 35 36 36 33 30 26 24 22
35 40 31 18 24 19 13 12 15 19 22 24 26 26 26 30 33 33 34 37 41 47 52 57 59 55 54 53 54 55 58 55 48 58 36 35 37 38 36 33 30 26 23
33 35 22 22 23 19 16 15 16 18 21 24 26 28 29 29 30 30 31 34 39 43 48 54 60 57 55 52 53 49 49 50 43 43 38 43 39 35 38 35 31 27 25
33 25 21 22 27 18 19 22 26 26 27 26 26 28 30 31 30 27 28 27 30 32 37 43 52 52 52 51 51 45 45 44 49 44 44 42 42 35 33 36 36 31 26
24 20 15 15 18 20 22 24 28 31 31 31 28 29 30 31 31 29 27 26 29 31 34 33 38 43 44 51 55 44 44 41 42 45 47 43 39 38 43 41 33 35 28
14 11 14 15 18 19 25 30 33 33 32 30 29 28 29 29 30 30 29 29 29 30 30 32 33 36 39 49 33 40 38 37 39 47 62 49 39 30 39 40 41 36 30
5 6 10 14 17 23 29 34 36 35 32 29 28 27 27 28 30 30 28 27 27 25 26 29 34 31 37 33 33 31 35 38 39 40 39 42 34 35 37 36 32 35 28
4 10 18 21 25 30 34 35 35 34 31 28 26 27 27 29 29 29 30 28 26 24 23 25 28 30 33 37 30 31 34 35 39 38 39 37 33 36 35 34 31 27 29
19 25 26 26 27 30 32 33 33 32 30 28 25 26 27 27 31 29 30 30 27 27 26 28 27 31 34 38 33 33 31 33 36 39 40 41 35 39 33 36 39 27 30
25 28 28 28 28 28 30 30 30 29 27 26 25 26 26 26 28 28 29 31 29 29 30 32 28 34 41 37 34 30 25 28 30 31 37 40 39 31 35 36 37 42 33
27 28 28 27 26 28 28 27 27 27 25 25 24 25 25 25 23 25 25 27 31 31 32 32 34 25 45 32 38 31 29 28 28 29 29 29 29 38 43 48 46 32 32
27 26 26 25 24 25 24 24 24 23 22 21 20 21 22 23 23 24 23 24 29 32 27 32 29 31 37 26 21 31 33 36 33 34 33 33 30 20 19 18 24 29 32
23 21 21 22 21 20 20 20 19 17 16 17 18 19 20 20 21 23 22 22 23 20 24 29 28 22 34 23 19 26 25 26 32 37 35 30 34 30 26 25 27 23 28
22 21 21 18 15 16 15 13 11 11 12 14 16 16 17 18 17 16 16 16 18 18 20 22 24 25 31 33 33 32 28 27 28 31 34 31 24 25 32 30 29 31 28
17 17 16 14 13 11 7 5 6 8 9 11 14 17 18 19 21 20 18 14 15 14 14 17 22 20 26 35 43 29 31 33 28 25 26 22 22 27 28 28 28 33 30
13 12 12 12 9 6 4 4 4 7 8 11 15 18 19 20 22 24 27 28 27 24 20 10 7 11 18 15 26 29 31 33 26 28 32 31 40 31 28 33 35 35 33
8 7 6 4 2 2 2 3 4 7 11 14 17 20 20 21 22 25 26 28 28 29 29 29 24 16 12 11 17 21 27 30 28 35 35 39 36 32 32 30 32 32 33
3 3 2 2 3 3 5 6 8 12 13 15 17 16 19 21 22 24 24 26 26 25 24 25 25 26 25 20 12 9 18 24 32 29 34 30 36 31 33 32 33 34 31
2 3 4 5 5 6 9 11 10 12 15 16 18 19 20 20 22 23 23 24 24 24 24 25 24 22 21 22 22 18 11 7 10 13 19 33 41 37 38 36 39 36 34
6 6 6 8 7 7 10 13 13 14 15 17 17 18 19 20 21 22 22 22 23 23 24 24 23 23 23 21 18 16 17 15 13 10 10 8 9 22 37 35 39 34 31
8 8 8 8 10 12 13 13 14 14 16 16 17 18 19 20 20 21 21 22 22 23 23 24 23 23 22 21 19 17 16 13 12 13 14 13 12 11 9 17 28 33 36
9 9 10 11 11 12 12 13 13 14 15 17 17 17 18 18 18 20 20 21 22 22 23 22 22 22 20 19 19 18 16 15 14 13 12 12 12 12 11 10 10 9 12
11 11 11 11 10 9 10 12 14 15 16 16 16 18 19 21 22 23 23 23 23 24 24 24 23 22 22 22 21 20 19 18 17 16 14 13 12 12 11 12 12 11 10
Wind_Direction
219 228 233 238 246 251 258 269 257 258 258 256 255 253 250 251 255 258 259 261 260 256 252 254 254 251 253 254 256 255 247 245 246 249 249 254 255 257 264 272 275 274 275
221 215 226 234 235 245 264 266 267 269 268 267 265 261 258 253 253 254 257 258 258 261 264 259 257 256 255 252 251 253 249 243 240 244 249 253 253 252 257 267 278 279 276
223 219 234 235 234 251 264 262 270 271 272 270 269 266 265 263 258 255 256 256 258 258 257 256 256 256 255 256 254 250 245 229 228 242 245 254 255 256 256 262 271 281 279
191 217 232 227 238 258 254 267 268 271 273 273 272 273 269 265 264 264 262 261 260 260 258 260 256 255 256 253 255 256 256 263 249 239 230 251 257 254 250 256 265 274 284
200 214 216 233 255 255 263 279 284 283 283 282 281 280 279 275 270 269 268 266 263 257 256 256 257 254 255 255 256 257 258 263 264 246 245 256 257 252 251 250 257 268 280
204 213 219 241 256 257 271 283 289 295 296 291 288 288 288 287 284 283 279 271 264 260 255 252 252 252 254 256 254 253 252 255 251 250 243 237 249 247 255 252 253 261 269
204 211 223 244 257 261 274 287 291 291 294 299 296 293 294 296 296 293 289 273 265 264 263 259 252 252 251 253 246 247 248 248 248 247 232 235 245 244 253 257 256 257 262
184 195 207 237 251 268 286 294 298 300 298 297 293 292 295 298 300 294 290 281 275 271 268 271 254 252 252 247 260 239 243 250 243 240 225 236 238 241 246 252 254 256 257
167 195 228 253 262 275 293 300 303 304 303 299 291 292 295 300 300 294 288 287 280 273 269 265 254 263 261 253 220 237 243 246 249 243 238 237 235 249 254 249 249 255 254
182 280 271 273 281 292 297 302 305 305 306 302 298 295 294 298 301 293 286 283 287 279 273 265 258 262 246 239 238 240 249 250 244 235 232 213 228 255 262 245 228 242 252
341 302 309 315 307 304 301 304 306 304 304 303 298 297 295 296 296 290 282 278 279 277 271 266 265 252 241 249 232 246 253 245 241 237 242 240 242 244 244 259 238 241 255
349 336 327 319 312 307 304 305 305 306 306 304 302 296 293 294 295 295 279 271 271 272 264 263 271 248 244 242 242 249 246 245 237 237 234 238 245 228 248 246 252 244 259
327 319 317 310 306 308 308 311 310 310 310 309 305 301 298 292 294 297 287 268 264 269 267 262 273 245 243 246 245 243 247 242 231 232 230 251 236 242 245 245 246 257 252
310 314 311 311 307 306 308 313 313 313 312 311 311 307 303 299 296 297 296 287 279 285 260 260 259 257 242 252 240 232 240 230 221 229 232 237 257 276 258 256 246 232 244
311 311 308 305 305 306 310 313 314 315 315 316 318 320 320 316 310 305 303 294 273 277 274 264 259 253 271 256 264 220 239 234 230 229 224 241 272 264 223 223 227 238 245
314 313 313 309 306 305 309 310 313 318 321 330 340 339 342 336 323 311 309 309 312 287 273 262 263 260 253 265 269 207 223 230 225 228 236 243 246 250 248 242 244 243 241
315 315 315 309 305 305 309 311 319 338 353 355 358 4 5 1 352 342 321 318 313 290 272 278 261 270 242 230 253 252 216 220 218 226 242 247 242 238 244 242 243 239 242
310 314 313 312 311 311 312 321 1 19 23 15 24 28 25 26 29 26 19 10 1 345 290 269 275 277 244 253 253 242 227 220 224 235 240 249 236 228 239 246 235 244 249
311 312 319 315 307 323 320 1 26 38 41 40 38 36 33 33 38 41 39 37 32 26 21 8 327 279 265 255 243 247 229 197 221 226 234 239 236 246 241 246 250 245 246
320 319 321 311 331 342 11 25 52 60 51 45 43 39 36 35 34 39 39 36 33 35 34 29 25 12 1 283 259 241 220 219 238 236 242 232 239 243 256 254 249 249 245
328 312 335 25 37 42 43 36 44 51 49 46 44 40 38 36 35 36 37 36 34 30 33 36 36 33 29 22 3 313 258 230 219 218 232 231 241 241 253 251 248 250 246
55 50 51 54 59 60 57 49 43 44 41 37 36 32 32 31 28 29 28 29 28 27 28 31 30 33 41 34 28 21 360 302 273 275 222 229 224 224 239 239 254 250 244
78 76 81 70 64 61 55 46 44 42 39 36 34 32 31 28 26 24 23 23 22 19 20 22 22 23 26 28 27 27 19 14 3 342 318 311 266 224 232 241 251 246 240
96 91 88 78 63 57 54 50 46 43 38 31 26 23 19 16 17 15 13 13 12 12 13 12 11 14 13 10 8 10 11 9 1 354 349 339 330 319 263 253 233 232 228
108 94 80 70 62 58 52 43 31 25 23 20 15 11 9 8 6 3 3 2 0 359 358 357 357 355 354 354 356 356 351 346 347 348 342 332 328 326 317 306 291 267 254
101 85 76 71 61 47 36 29 24 21 15 8 4 3 1 359 357 355 355 356 354 348 347 346 344 342 340 338 336 335 335 332 329 326 323 319 315 309 304 300 300 297 283